TimeMST,TemperatureF,Dew PointF,Humidity,Sea Level PressureIn,VisibilityMPH,Wind Direction,Wind SpeedMPH,Gust SpeedMPH,PrecipitationIn,Events,Conditions,WindDirDegrees,DateUTC
12:53 AM,30.9,15.1,52,29.93,10.0,SSE,9.2,-,N/A,,Overcast,160,2012-12-07 07:53:00
1:53 AM,25.0,12.0,58,29.93,10.0,SE,8.1,-,N/A,,Clear,140,2012-12-07 08:53:00
2:53 AM,25.0,14.0,63,29.90,10.0,South,6.9,-,N/A,,Clear,170,2012-12-07 09:53:00
3:53 AM,19.9,12.0,71,29.92,10.0,SSW,8.1,-,N/A,,Clear,210,2012-12-07 10:53:00
4:53 AM,21.0,12.0,68,29.93,10.0,SSW,8.1,-,N/A,,Clear,210,2012-12-07 11:53:00
5:53 AM,21.0,12.0,68,29.93,10.0,SW,8.1,-,N/A,,Clear,220,2012-12-07 12:53:00
6:53 AM,27.0,14.0,58,29.91,10.0,SSW,12.7,-,N/A,,Clear,210,2012-12-07 13:53:00
7:53 AM,28.0,14.0,56,29.91,10.0,SSW,10.4,-,N/A,,Clear,200,2012-12-07 14:53:00
8:53 AM,32.0,16.0,52,29.93,9.0,SW,8.1,-,N/A,,Clear,220,2012-12-07 15:53:00
9:53 AM,37.0,17.1,44,29.91,10.0,SSW,11.5,-,N/A,,Clear,210,2012-12-07 16:53:00
10:53 AM,41.0,17.1,38,29.88,10.0,SW,6.9,-,N/A,,Clear,230,2012-12-07 17:53:00
11:53 AM,48.0,21.9,36,29.84,10.0,North,15.0,20.7,N/A,,Clear,360,2012-12-07 18:53:00
12:53 PM,48.0,21.0,34,29.84,10.0,North,21.9,26.5,N/A,,Clear,10,2012-12-07 19:53:00
1:53 PM,48.9,21.0,33,29.86,10.0,NNE,13.8,23.0,N/A,,Clear,20,2012-12-07 20:53:00
2:53 PM,46.9,21.0,36,29.88,10.0,NNE,17.3,-,N/A,,Clear,20,2012-12-07 21:53:00
3:53 PM,44.1,19.9,38,29.92,10.0,NNE,10.4,-,N/A,,Clear,30,2012-12-07 22:53:00
4:53 PM,35.1,18.0,50,29.96,8.0,NE,6.9,-,N/A,,Partly Cloudy,50,2012-12-07 23:53:00
6:53 PM,33.1,16.0,50,30.00,10.0,NNE,9.2,-,N/A,,Clear,30,2012-12-08 01:53:00
7:53 PM,30.0,16.0,56,30.03,10.0,NNE,10.4,-,N/A,,Clear,20,2012-12-08 02:53:00
9:53 PM,28.0,17.1,63,30.01,10.0,SW,4.6,-,N/A,,Overcast,230,2012-12-08 04:53:00
10:53 PM,26.1,16.0,66,30.00,10.0,WSW,3.5,-,N/A,,Partly Cloudy,240,2012-12-08 05:53:00
11:53 PM,21.9,14.0,72,29.98,10.0,SW,6.9,-,N/A,,Clear,230,2012-12-08 06:53:00